Location: Chmeln�
(49.6483°N, 14.9871°E)
Time: 09:02:56
(UTC+00:00)

USA 234 - Pass Details

Date: 18 September 2020
Orbit: 1102 x 1106 km, 123.0° (Epoch: 16 October)

Event Time Altitude Azimuth Distance (km) Brightness Sun altitude
Rises 23:40:47 0° 88° (E) 3,919 6.3 -38.0°
Reaches altitude 10° 23:43:20 10° 83° (E) 2,962 5.7 -37.9°
Maximum altitude 23:49:35 51° 11° (N) 1,370 3.9 -37.6°
Enters shadow 23:50:38 46° 342° (NNW) 1,441 4.0 -37.5°
Exits shadow 23:54:27 17° 302° (WNW) 2,466 5.2 -37.3°
Drops below altitude 10° 23:55:51 10° 298° (WNW) 2,967 5.6 -37.3°
Sets 23:58:24 0° 293° (WNW) 3,926 6.2 -37.1°
